Home > Time Zones > World Clock > Weather > Japan > Kobe > Past weeks

Flag for Japan Weather past 2 weeks in Kobe, Japan

Now
45 °F

Light rain. Partly cloudy.


Feels Like: 40 °F
Forecast: 41 / 49 °F
Wind: 8 mph from East

Location: Kansai International Airport

Current Time: Mar 1, 2015 at 4:38:44 AM

Latest Report: Mar 1, 2015 at 4:00 AM


Visibility: N/A

Pressure: 30.09 "Hg

Humidity: 71%

Dew point: 36 °F

Location of KobeLocation

Historic Weather in Kobe — Graph

°F

Kobe temperature yesterday

Maximum temperature yesterday: 48 °F (at 1:30 PM)
Minimum temperature yesterday: 39 °F (at 12:00 AM)
Average temperature yesterday: 44 °F

Past Weeks' High & Low Weather Summary

 TemperatureHumidityPressure
High61 °F (Feb 22, 8:50 PM)94% (Feb 23, 3:30 AM)30.36 "Hg (Feb 23, 3:30 AM)
Low36 °F (Feb 21, 4:30 AM)34% (Feb 16, 4:00 PM)29.80 "Hg (Feb 17, 1:30 AM)
Average47 °F62%30.06 "Hg
* Reported Feb 14 3:00 AM — Mar 1 3:30 AM, Kobe, Weather by CustomWeather, © 2015

Note: Actual official high and low records may vary slightly from our data, if they occured in-between our weather recording intervals... More about our weather records

Advertising

Kobe weather history for previous 24 hours

 ConditionsComfort  
Time TempWeatherWind HumidityBarometerVisibility
3:30 AM
Sun, Mar 1
45 °FLight rain. Partly cloudy.8 mph66%30.09 "HgN/A
3:00 AM45 °FLight rain. Partly cloudy.6 mph66%30.09 "HgN/A
2:30 AM46 °FLight rain. Passing clouds.7 mph66%30.12 "HgN/A
2:00 AM46 °FPartly cloudy.3 mph66%30.12 "HgN/A
1:30 AM46 °FPartly cloudy.3 mph66%30.15 "HgN/A
1:00 AM46 °FPartly cloudy.2 mph62%30.18 "HgN/A
12:30 AM46 °FPartly cloudy.2 mph62%30.18 "HgN/A
12:00 AM46 °FPartly cloudy.1 mph62%30.18 "HgN/A
11:30 PM
Sat, Feb 28
46 °FPartly cloudy.2 mph57%30.21 "HgN/A
11:00 PM46 °FPartly cloudy.1 mph57%30.21 "HgN/A
10:30 PM46 °FPartly cloudy.2 mph57%30.21 "HgN/A
10:00 PM46 °FPartly cloudy.3 mph57%30.24 "HgN/A
9:30 PM46 °FPartly cloudy.3 mph57%30.24 "HgN/A
9:00 PM46 °FPartly cloudy.5 mph62%30.24 "HgN/A
8:30 PM46 °FPartly cloudy.3 mph62%30.24 "HgN/A
8:00 PM46 °FPartly cloudy.3 mph57%30.27 "HgN/A
7:30 PM46 °FPartly cloudy.5 mph57%30.27 "HgN/A
7:00 PM46 °FPartly cloudy.3 mph53%30.24 "HgN/A
6:30 PM46 °FPartly cloudy.7 mph53%30.24 "HgN/A
6:00 PM46 °FPartly cloudy.9 mph50%30.24 "HgN/A
5:30 PM46 °FPartly sunny.8 mph50%30.24 "HgN/A
5:00 PM48 °FPartly sunny.10 mph46%30.24 "HgN/A
4:30 PM48 °FPartly sunny.13 mph43%30.24 "HgN/A
4:00 PM48 °FPartly sunny.9 mph43%30.21 "HgN/A
3:30 PM48 °FPartly sunny.10 mph43%30.24 "HgN/A
3:00 PM48 °FPartly sunny.10 mph43%30.24 "HgN/A
2:30 PM48 °FScattered clouds.10 mph43%30.27 "HgN/A
2:00 PM48 °FScattered clouds.9 mph40%30.27 "HgN/A
1:30 PM48 °FScattered clouds.10 mph43%30.27 "HgN/A
1:00 PM46 °FScattered clouds.8 mph40%30.30 "HgN/A
12:30 PM46 °FScattered clouds.10 mph43%30.30 "HgN/A
12:00 PM45 °FPassing clouds.12 mph46%30.33 "HgN/A
11:30 AM46 °FPassing clouds.12 mph50%30.36 "HgN/A
11:00 AM45 °FPassing clouds.13 mph49%30.36 "HgN/A
10:30 AM45 °FPassing clouds.13 mph49%30.36 "HgN/A
10:00 AM45 °FPassing clouds.9 mph53%30.36 "HgN/A
9:30 AM43 °FPassing clouds.9 mph53%30.36 "HgN/A
9:00 AM43 °FPassing clouds.12 mph53%30.33 "HgN/A
8:30 AM43 °FPassing clouds.13 mph53%30.33 "HgN/A
8:00 AM41 °FPassing clouds.13 mph57%30.36 "HgN/A
7:30 AM41 °FScattered clouds.9 mph57%30.33 "HgN/A
7:00 AM41 °FPartly sunny.12 mph57%30.33 "HgN/A
6:30 AM41 °FPartly sunny.12 mph57%30.33 "HgN/A
6:00 AM41 °FPassing clouds.12 mph61%30.30 "HgN/A
5:30 AM39 °FPartly cloudy.14 mph61%30.30 "HgN/A
5:00 AM39 °FPassing clouds.13 mph61%30.30 "HgN/A
4:30 AM39 °FPassing clouds.13 mph61%30.27 "HgN/A
4:00 AM39 °FPassing clouds.13 mph61%30.27 "HgN/A
Weather by CustomWeather, © 2015

See weather overviewHow to use our weather pages